Peru, IN

9:23 AM EDT on June 25, 2017 (GMT -0400)
Grissom Air Reserve Base

Weather History for KGUS - January, 2012

Change the Weather History Date:

Friday, January 13, 2012

  Actual Average Record
Temperature  
Mean Temperature 16 °F -  
Max Temperature 19 °F 28 °F 51 °F (2005)
Min Temperature 12 °F 17 °F -7 °F (1997)
Degree Days  
Heating Degree Days 50    
Moisture  
Dew Point 16 °F    
Average Humidity 100    
Maximum Humidity 100    
Minimum Humidity 99    
Precipitation  
Precipitation 0.03 in - - ()
Snow  
Snow 0.00 in - - ()
Snow Depth 2.00 in    
Sea Level Pressure  
Sea Level Pressure 29.76 in    
Wind  
Wind Speed 25 mph (West)    
Max Wind Speed 31 mph    
Max Gust Speed 38 mph    
Visibility 3 miles    
Events Snow    
Averages and records for this station are not official NWS values.
T = Trace of Precipitation, MM = Missing Value Source: NWS Daily Summary

Daily Weather History Graph

Daily Weather History Graph

Search for Another Location

Airport or City:

Trip Planner

Search our weather history database for the weather conditions in past years. The results will help you decide how hot, cold, wet, or windy it might be!

Date:

Astronomy

Jan. 13, 2012 Rise Set
Actual Time 8:07 AM EST 5:39 PM EST
Civil Twilight 7:37 AM EST 6:09 PM EST
Nautical Twilight 7:03 AM EST 6:43 PM EST
Astronomical Twilight 6:30 AM EST 7:16 PM EST
Moon 10:53 PM EST (1/13) 10:19 AM EST (1/13)
Length of Visible Light 10h 32m
Length of Day
9h 32m
Waning Gibbous, 79% of the Moon is Illuminated
Jan 13
Waning Gibbous
Jan 16
Last Quarter
Jan 23
New
Jan 30
First Quarter
Feb 7
Full

Hourly Weather History & Observations

Time (EST) Temp. Windchill Dew Point Humidity Pressure Visibility Wind Dir Wind Speed Gust Speed Precip Events Conditions
12:04 AM 15.8 °F -4.1 °F 15.8 °F 100% 29.56 in 6.0 mi WSW 28.8 mph 36.8 mph N/A Snow Light Snow
12:38 AM 15.8 °F -3.7 °F 15.8 °F 100% 29.57 in 6.0 mi WSW 27.6 mph 34.5 mph N/A Snow Light Snow
12:42 AM 15.8 °F -3.1 °F 15.8 °F 100% 29.57 in 4.0 mi WSW 25.3 mph 34.5 mph N/A Snow Light Snow
12:51 AM 15.8 °F -3.4 °F 15.8 °F 100% 29.58 in 2.5 mi WSW 26.5 mph - N/A Snow Light Snow
12:53 AM 15.8 °F -2.7 °F 15.8 °F 100% 29.58 in 2.5 mi WSW 24.2 mph - N/A Snow Light Snow
12:54 AM 15.8 °F -2.3 °F 15.8 °F 100% 29.58 in 2.0 mi WSW 23.0 mph 31.1 mph N/A Snow Light Snow
12:55 AM 15.6 °F -2.6 °F 15.6 °F 100% 29.58 in 2.0 mi WSW 23.0 mph 31.1 mph 0.00 in Snow Light Snow
12:57 AM 15.8 °F -2.3 °F 15.8 °F 100% 29.58 in 1.8 mi WSW 23.0 mph 31.1 mph N/A Snow Light Snow
12:58 AM 15.8 °F -2.7 °F 15.8 °F 100% 29.58 in 1.8 mi WSW 24.2 mph 32.2 mph N/A Snow Light Snow
1:00 AM 15.8 °F -3.7 °F 15.8 °F 100% 29.58 in 1.5 mi WSW 27.6 mph 32.2 mph N/A Snow Light Snow
1:01 AM 15.8 °F -3.7 °F 15.8 °F 100% 29.58 in 1.2 mi WSW 27.6 mph 32.2 mph N/A Snow Light Snow
1:05 AM 15.8 °F -3.1 °F 15.8 °F 100% 29.58 in 1.0 mi WSW 25.3 mph 33.4 mph N/A Snow Light Snow
1:11 AM 15.8 °F -3.1 °F 15.8 °F 100% 29.59 in 1.2 mi WSW 25.3 mph 33.4 mph N/A Snow Light Snow
1:12 AM 15.8 °F -3.1 °F 15.8 °F 100% 29.59 in 1.2 mi WSW 25.3 mph 33.4 mph N/A Snow Light Snow
1:21 AM 15.8 °F -3.4 °F 15.8 °F 100% 29.59 in 1.0 mi WSW 26.5 mph 34.5 mph N/A Snow Light Snow
1:25 AM 15.8 °F -3.4 °F 15.8 °F 100% 29.59 in 1.0 mi WSW 26.5 mph 34.5 mph N/A Snow Light Snow
1:39 AM 15.8 °F -2.7 °F 15.8 °F 100% 29.59 in 1.0 mi WSW 24.2 mph 33.4 mph N/A Snow Light Snow
1:43 AM 15.8 °F -3.1 °F 15.8 °F 100% 29.59 in 1.2 mi WSW 25.3 mph 33.4 mph N/A Snow Light Snow
1:47 AM 15.8 °F -3.7 °F 15.8 °F 100% 29.59 in 1.0 mi WSW 27.6 mph 33.4 mph N/A Snow Light Snow
1:54 AM 15.8 °F -2.7 °F 15.8 °F 100% 29.60 in 1.0 mi WSW 24.2 mph 34.5 mph N/A Snow Light Snow
1:55 AM 15.4 °F -3.5 °F 15.4 °F 100% 29.60 in 1.0 mi WSW 25.3 mph 34.5 mph 0.00 in Snow Light Snow
1:57 AM 15.8 °F -3.7 °F 15.8 °F 100% 29.60 in 1.2 mi WSW 27.6 mph 34.5 mph N/A Snow Light Snow
2:00 AM 15.8 °F -2.7 °F 15.8 °F 100% 29.60 in 1.2 mi WSW 24.2 mph 34.5 mph N/A Snow Light Snow
2:01 AM 15.8 °F -3.4 °F 15.8 °F 100% 29.60 in 1.5 mi WSW 26.5 mph 33.4 mph N/A Snow Light Snow
2:02 AM 15.8 °F -4.1 °F 15.8 °F 100% 29.60 in 1.5 mi WSW 28.8 mph 33.4 mph N/A Snow Light Snow
2:09 AM 15.8 °F -3.7 °F 15.8 °F 100% 29.60 in 1.2 mi WSW 27.6 mph 33.4 mph N/A Snow Light Snow
2:11 AM 15.8 °F -3.7 °F 15.8 °F 100% 29.60 in 1.2 mi West 27.6 mph 35.7 mph N/A Snow Light Snow
2:13 AM 15.8 °F -4.1 °F 15.8 °F 100% 29.60 in 1.0 mi WSW 28.8 mph 38.0 mph N/A Snow Light Snow
2:16 AM 15.8 °F -4.1 °F 15.8 °F 100% 29.60 in 1.0 mi WSW 28.8 mph 38.0 mph N/A Snow Light Snow
2:19 AM 15.8 °F -3.1 °F 15.8 °F 100% 29.61 in 1.0 mi WSW 25.3 mph 38.0 mph N/A Snow Light Snow
2:29 AM 15.8 °F -4.4 °F 15.8 °F 100% 29.61 in 1.0 mi West 29.9 mph 36.8 mph N/A Snow Light Snow
2:55 AM 15.3 °F -4.5 °F 15.3 °F 100% 29.62 in 1.0 mi WSW 27.6 mph 34.5 mph 0.00 in Snow Light Snow
2:57 AM 15.8 °F -4.1 °F 15.8 °F 100% 29.62 in 1.0 mi West 28.8 mph 34.5 mph N/A Snow Light Snow
2:59 AM 15.8 °F -4.1 °F 15.8 °F 100% 29.63 in 1.2 mi West 28.8 mph 34.5 mph N/A Snow Light Snow
3:13 AM 15.8 °F -4.4 °F 15.8 °F 100% 29.63 in 1.0 mi West 29.9 mph 35.7 mph N/A Snow Light Snow
3:17 AM 15.8 °F -3.7 °F 15.8 °F 100% 29.63 in 1.0 mi West 27.6 mph 35.7 mph N/A Snow Light Snow
3:27 AM 15.8 °F -4.4 °F 15.8 °F 100% 29.63 in 0.8 mi West 29.9 mph 38.0 mph N/A Snow Light Snow
3:40 AM 15.8 °F -3.7 °F 15.8 °F 100% 29.64 in 1.0 mi West 27.6 mph 34.5 mph N/A Snow Light Snow
3:55 AM 14.7 °F -5.8 °F 14.7 °F 100% 29.65 in 1.0 mi West 29.9 mph 38.0 mph 0.00 in Snow Light Snow
4:15 AM 14.0 °F -5.8 °F 14.0 °F 100% 29.66 in 1.0 mi West 26.5 mph 36.8 mph N/A Snow Light Snow
4:17 AM 14.0 °F -5.5 °F 14.0 °F 100% 29.66 in 1.0 mi West 25.3 mph 33.4 mph N/A Snow Light Snow
4:20 AM 14.0 °F -6.5 °F 14.0 °F 100% 29.66 in 1.2 mi West 28.8 mph 33.4 mph N/A Snow Light Snow
4:21 AM 14.0 °F -6.2 °F 14.0 °F 100% 29.66 in 1.2 mi West 27.6 mph 34.5 mph N/A Snow Light Snow
4:24 AM 14.0 °F -6.5 °F 14.0 °F 100% 29.66 in 1.5 mi West 28.8 mph 34.5 mph N/A Snow Light Snow
4:25 AM 14.0 °F -6.8 °F 14.0 °F 100% 29.66 in 1.5 mi West 29.9 mph 35.7 mph N/A Snow Light Snow
4:28 AM 14.0 °F -6.5 °F 14.0 °F 100% 29.66 in 1.2 mi West 28.8 mph 36.8 mph N/A Snow Light Snow
4:30 AM 14.0 °F -5.8 °F 14.0 °F 100% 29.66 in 1.5 mi West 26.5 mph 36.8 mph N/A Snow Light Snow
4:42 AM 14.0 °F -7.1 °F 14.0 °F 100% 29.66 in 1.2 mi West 31.1 mph 34.5 mph N/A Snow Light Snow
4:44 AM 14.0 °F -6.2 °F 14.0 °F 100% 29.67 in 1.2 mi West 27.6 mph 34.5 mph N/A Snow Light Snow
4:46 AM 14.0 °F -5.5 °F 14.0 °F 100% 29.67 in 1.5 mi West 25.3 mph 33.4 mph N/A Snow Light Snow
4:55 AM 14.5 °F -5.1 °F 14.5 °F 100% 29.67 in 1.5 mi West 26.5 mph 34.5 mph 0.00 in Snow Light Snow
5:02 AM 14.0 °F -5.5 °F 14.0 °F 100% 29.68 in 1.5 mi West 25.3 mph 33.4 mph N/A Snow Light Snow
5:09 AM 14.0 °F -5.5 °F 14.0 °F 100% 29.68 in 1.8 mi West 25.3 mph 31.1 mph N/A Snow Light Snow
5:12 AM 14.0 °F -6.2 °F 14.0 °F 100% 29.68 in 1.5 mi West 27.6 mph 33.4 mph N/A Snow Light Snow
5:23 AM 14.0 °F -5.5 °F 14.0 °F 100% 29.68 in 1.5 mi West 25.3 mph - N/A Snow Light Snow
5:25 AM 14.0 °F -5.5 °F 14.0 °F 100% 29.69 in 1.5 mi West 25.3 mph - N/A Snow Light Snow
5:30 AM 14.0 °F -6.2 °F 14.0 °F 100% 29.69 in 2.0 mi West 27.6 mph 33.4 mph N/A Snow Light Snow
5:35 AM 14.0 °F -6.5 °F 14.0 °F 100% 29.69 in 1.8 mi West 28.8 mph 33.4 mph N/A Snow Light Snow
5:36 AM 14.0 °F -6.5 °F 14.0 °F 100% 29.69 in 1.8 mi West 28.8 mph - N/A Snow Light Snow
5:42 AM 14.0 °F -6.2 °F 14.0 °F 100% 29.69 in 1.8 mi West 27.6 mph 35.7 mph N/A Snow Light Snow
5:47 AM 14.0 °F -6.5 °F 14.0 °F 100% 29.70 in 2.0 mi West 28.8 mph 35.7 mph N/A Snow Light Snow
5:52 AM 14.0 °F -6.2 °F 14.0 °F 100% 29.70 in 1.8 mi West 27.6 mph - N/A Snow Light Snow
5:55 AM 14.4 °F -5.7 °F 14.4 °F 100% 29.71 in 1.8 mi West 27.6 mph 35.7 mph 0.00 in Snow Light Snow
5:56 AM 14.0 °F -5.1 °F 14.0 °F 100% 29.71 in 1.8 mi West 24.2 mph 35.7 mph N/A Snow Light Snow
5:57 AM 14.0 °F -5.1 °F 14.0 °F 100% 29.71 in 2.0 mi West 24.2 mph 35.7 mph N/A Snow Light Snow
6:25 AM 14.0 °F -6.5 °F 14.0 °F 100% 29.72 in 1.8 mi West 28.8 mph 35.7 mph N/A Snow Light Snow
6:26 AM 14.0 °F -5.8 °F 14.0 °F 100% 29.73 in 1.8 mi West 26.5 mph 35.7 mph N/A Snow Light Snow
6:27 AM 14.0 °F -5.8 °F 14.0 °F 100% 29.72 in 1.8 mi West 26.5 mph 35.7 mph N/A Snow Light Snow
6:38 AM 14.0 °F -5.5 °F 14.0 °F 100% 29.73 in 1.8 mi West 25.3 mph 35.7 mph N/A Snow Light Snow
6:43 AM 14.0 °F -6.2 °F 14.0 °F 100% 29.73 in 2.0 mi West 27.6 mph 35.7 mph N/A Snow Light Snow
6:45 AM 14.0 °F -5.8 °F 14.0 °F 100% 29.73 in 2.0 mi West 26.5 mph 35.7 mph N/A Snow Light Snow
6:46 AM 14.0 °F -5.5 °F 14.0 °F 100% 29.74 in 2.5 mi West 25.3 mph 34.5 mph N/A Snow Light Snow
6:50 AM 14.0 °F -5.1 °F 14.0 °F 100% 29.74 in 2.5 mi West 24.2 mph 34.5 mph N/A Snow Light Snow
6:55 AM 14.2 °F -5.9 °F 14.2 °F 100% 29.74 in 3.0 mi West 27.6 mph 35.7 mph 0.03 in Snow Light Snow
7:55 AM 13.5 °F -5.8 °F 13.5 °F 100% 29.78 in 2.0 mi West 24.2 mph - 0.00 in Snow Light Snow
8:55 AM 13.1 °F -6.3 °F 13.1 °F 100% 29.81 in 2.0 mi West 24.2 mph - 0.00 in Snow Light Snow
9:18 AM 12.2 °F -6.7 °F 12.2 °F 100% 29.82 in 2.0 mi West 21.9 mph - N/A Snow Light Snow
9:55 AM 13.1 °F -5.5 °F 12.9 °F 99% 29.85 in 4.0 mi West 21.9 mph - 0.00 in Snow Light Snow
10:30 AM 14.0 °F -5.5 °F 14.0 °F 100% 29.85 in 4.0 mi West 25.3 mph - N/A Snow Light Snow
10:55 AM 14.7 °F -3.8 °F 14.7 °F 100% 29.87 in 3.0 mi West 23.0 mph 29.9 mph 0.00 in Snow Light Snow
11:31 AM 15.8 °F -1.9 °F 15.8 °F 100% 29.89 in 2.0 mi West 21.9 mph - N/A Snow Light Snow
11:42 AM 15.8 °F -2.3 °F 15.8 °F 100% 29.89 in 2.0 mi West 23.0 mph - N/A Snow Light Snow
11:55 AM 15.8 °F -1.9 °F 15.8 °F 100% 29.90 in 2.0 mi West 21.9 mph - 0.00 in Snow Light Snow
12:32 PM 17.6 °F -0.6 °F 17.6 °F 100% 29.89 in 2.5 mi West 25.3 mph 28.8 mph N/A Snow Light Snow
12:55 PM 17.1 °F 0.1 °F 17.1 °F 100% 29.90 in 3.0 mi West 20.7 mph - 0.00 in Snow Light Snow
1:19 PM 17.6 °F -0.6 °F 17.6 °F 100% 29.90 in 1.5 mi West 25.3 mph - N/A Snow Light Snow
1:44 PM 17.6 °F 0.9 °F 17.6 °F 100% 29.91 in 2.0 mi West 20.7 mph - N/A Snow Light Snow
1:55 PM 17.2 °F 0.8 °F 17.2 °F 100% 29.91 in 3.0 mi West 19.6 mph - 0.00 in Snow Light Snow
2:54 PM 17.6 °F 0.9 °F 17.6 °F 100% 29.94 in 4.0 mi West 20.7 mph - N/A Snow Light Snow
2:55 PM 17.8 °F 1.1 °F 17.8 °F 100% 29.94 in 3.0 mi West 20.7 mph - 0.00 in Snow Light Snow
3:05 PM 17.6 °F 0.9 °F 17.6 °F 100% 29.95 in 2.0 mi West 20.7 mph - N/A Snow Light Snow
3:28 PM 17.6 °F 1.7 °F 17.6 °F 100% 29.95 in 2.5 mi West 18.4 mph - N/A Snow Light Snow
3:55 PM 18.3 °F 3.1 °F 18.3 °F 100% 29.97 in 2.5 mi West 17.3 mph - 0.00 in Snow Light Snow
4:10 PM 19.4 °F 3.6 °F 19.4 °F 100% 29.98 in 3.0 mi West 19.6 mph - N/A Snow Light Snow
4:20 PM 19.4 °F 4.1 °F 19.4 °F 100% 29.98 in 3.0 mi West 18.4 mph - N/A Snow Light Snow
4:24 PM 19.4 °F 3.2 °F 19.4 °F 100% 29.98 in 2.0 mi West 20.7 mph - N/A Snow Light Snow
4:42 PM 19.4 °F 3.2 °F 19.4 °F 100% 29.99 in 3.0 mi West 20.7 mph - N/A Snow Light Snow
4:55 PM 18.7 °F 2.3 °F 18.7 °F 100% 30.00 in 3.0 mi West 20.7 mph - 0.00 in Snow Light Snow
5:39 PM 19.4 °F 5.0 °F 19.4 °F 100% 30.02 in 4.0 mi West 16.1 mph - N/A Snow Light Snow
5:55 PM 18.5 °F 3.8 °F 18.5 °F 100% 30.03 in 4.0 mi West 16.1 mph - 0.00 in Snow Light Snow
6:55 PM 18.5 °F 4.9 °F 18.5 °F 100% 30.05 in 5.0 mi WSW 13.8 mph - 0.00 in Snow Light Snow
7:55 PM 18.1 °F 4.4 °F 18.1 °F 100% 30.07 in 6.0 mi WSW 13.8 mph - 0.00 in Snow Light Snow
8:39 PM 17.6 °F 3.2 °F 17.6 °F 100% 30.08 in 6.0 mi WSW 15.0 mph - N/A Snow Light Snow
8:55 PM 17.8 °F 2.9 °F 17.8 °F 100% 30.08 in 7.0 mi West 16.1 mph - 0.00 in Snow Light Snow
9:51 PM 17.6 °F 2.7 °F 17.6 °F 100% 30.08 in 10.0 mi West 16.1 mph - N/A   Overcast
9:55 PM 17.8 °F 2.4 °F 17.8 °F 100% 30.08 in 10.0 mi WSW 17.3 mph - 0.00 in   Overcast
10:08 PM 17.6 °F 3.2 °F 17.6 °F 100% 30.08 in 10.0 mi West 15.0 mph - N/A Snow Light Snow
10:55 PM 17.4 °F 2.4 °F 17.4 °F 100% 30.09 in 10.0 mi West 16.1 mph - 0.00 in Snow Light Snow
10:59 PM 17.6 °F 1.7 °F 17.6 °F 100% 30.08 in 10.0 mi West 18.4 mph - N/A   Overcast
11:01 PM 17.6 °F 2.7 °F 17.6 °F 100% 30.08 in 10.0 mi West 16.1 mph - N/A Snow Light Snow
11:23 PM 17.6 °F 2.7 °F 17.6 °F 100% 30.09 in 10.0 mi West 16.1 mph - N/A   Overcast
11:26 PM 17.6 °F 2.7 °F 17.6 °F 100% 30.09 in 10.0 mi West 16.1 mph - N/A Snow Light Snow
11:49 PM 17.6 °F 2.7 °F 17.6 °F 100% 30.10 in 10.0 mi West 16.1 mph - N/A   Overcast
11:53 PM 17.6 °F 3.2 °F 17.6 °F 100% 30.10 in 10.0 mi West 15.0 mph - N/A   Overcast
11:55 PM 17.2 °F 3.3 °F 17.2 °F 100% 30.10 in 10.0 mi West 13.8 mph - 0.00 in   Overcast